This demonstration page uses our WeatherBlox Daily Observations layout. Learn more.

Left ArrowRight Arrow

41.55636, -103.73856

Hourly Observations for April 19, 2018

Temp ( °F °C ) Dew Point ( °F °C ) Humidity (%) Winds ( mph kmh ) Pressure ( in mb ) Visibility ( mi km ) Precip ( " mm )
12:58 am 00:58 Clear 32 -0.1 22 -5.5 67 67 ESE 12 19 30.32 1027 10 16 N/A
1:58 am 01:58 Clear 29 -1.7 22 -5.6 75 75 SE 8 13 30.34 1028 10 16 N/A
2:58 am 02:58 Clear 29 -1.4 22 -5.8 72 72 SSE 9 15 30.32 1027 10 16 N/A
3:58 am 03:58 Clear 28 -2 23 -5.1 80 80 SSE 8 13 30.34 1028 10 16 N/A
4:58 am 04:58 Clear 28 -2.2 23 -5.2 80 80 SSE 12 19 30.35 1028 10 16 N/A
5:58 am 05:58 Clear 27 -2.8 22 -5.3 83 83 SE 7 11 30.37 1028 10 16 N/A
6:58 am 06:58 Sunny 27 -2.8 24 -4.4 89 89 SE 7 11 30.39 1029 10 16 N/A
7:58 am 07:58 Sunny 32 0 27 -2.6 83 83 SSE 10 17 30.39 1029 10 16 N/A
8:58 am 08:58 Sunny 39 3.8 26 -3.1 61 61 SSE 14 22 30.37 1028 10 16 N/A
9:58 am 09:58 Sunny 44 6.7 23 -5 43 43 SSE 25 41 30.33 1027 10 16 N/A
10:58 am 10:58 Sunny 46 7.9 22 -5.3 39 39 SSE 26 43 30.29 1026 10 16 N/A
11:58 am 11:58 Sunny 52 11.3 22 -5.8 30 30 S 25 41 30.23 1024 10 16 N/A
12:58 pm 12:58 Sunny 53 11.7 22 -5.5 30 30 S 24 39 30.22 1023 10 16 N/A
1:58 pm 13:58 Sunny 56 13.2 22 -5.7 27 27 SSE 28 44 30.19 1022 10 16 N/A
2:58 pm 14:58 Sunny 57 13.7 22 -5.4 26 26 SSE 31 50 30.16 1021 10 16 N/A
3:58 pm 15:58 Sunny 57 13.7 22 -5.3 27 27 SSE 32 52 30.12 1020 10 16 N/A
4:58 pm 16:58 Sunny 57 14.1 23 -5.2 26 26 SSE 30 48 30.10 1019 10 16 N/A
5:58 pm 17:58 Sunny 56 13.1 22 -5.7 27 27 SSE 29 46 30.11 1020 10 16 N/A
6:58 pm 18:58 Sunny 53 11.8 23 -4.8 31 31 SE 26 43 30.09 1019 10 16 N/A
7:58 pm 19:58 Clear 50 9.9 24 -4.5 36 36 SE 24 39 30.09 1019 10 16 N/A
8:58 pm 20:58 Mostly Clear 48 8.8 25 -4.1 40 40 SE 28 44 30.06 1018 10 16 N/A
9:58 pm 21:58 Clear 45 7.2 27 -3 49 49 SE 28 44 30.07 1018 10 16 N/A
10:58 pm 22:58 Clear 42 5.4 27 -2.9 55 55 SE 30 48 30.06 1018 10 16 N/A
11:58 pm 23:58 Clear 40 4.4 26 -3.5 57 57 SSE 28 44 30.04 1017 10 16 N/A

Powered by AerisWeather